Regional Weather Roundup
Issued by NWS

Current Version | Previous Version | Text Only | Print | Product List | Glossary On
Versions: 1 2 3 4 5 6 7 8 9 10 11 12 13 14 15 16 17 18 19 20 21 22 23 24 25 26 27 28 29 30 31 32 33 34 35 36 37 38 39 40 41 42 43 44 45 46 47 48 49 50
000
ASUS44 KOUN 260810
RWROK

WEATHER ROUNDUP FOR OKLAHOMA
NATIONAL WEATHER SERVICE NORMAN OK
300 AM CDT SUN JUN 26 2016

NOTE: "FAIR" INDICATES FEW OR NO CLOUDS BELOW 12,000 FEET WITH NO
      SIGNIFICANT WEATHER AND/OR OBSTRUCTIONS TO VISIBILITY.

OKZ001>007-009>012-014-015-017-260900-
NORTHWEST OKLAHOMA AND THE PANHANDLE

CITY           SKY/WX    TMP DP  RH WIND       PRES   REMARKS
GAGE           CLOUDY    74  63  68 N8        30.09F
GUYMON         CLOUDY    67  64  90 NE7       30.13F
ENID/WOODRING  PTCLDY    75  70  83 S7        30.02S
$$

OKZ016-021>023-033>039-044-045-260900-
SOUTHWEST OKLAHOMA

CITY           SKY/WX    TMP DP  RH WIND       PRES   REMARKS
LAWTON/REGL    CLEAR     78  72  81 S13       30.05R
LAWTON/FT SILL CLEAR     77  73  86 S9        30.05R
FREDERICK      CLEAR     78  72  81 SE10      30.03R
CLINTON        CLEAR     76  71  85 S13       30.08S
HOBART         CLEAR     78  71  79 S10       30.06R
ALTUS AFB      PTCLDY    78  70  76 SE8       30.05R
$$

OKZ018>020-024>031-260900-
CENTRAL OKLAHOMA

CITY           SKY/WX    TMP DP  RH WIND       PRES   REMARKS
OKLAHOMA CITY  PTCLDY    74  72  93 S7        30.05S
OKC/WILEY POST CLEAR     77  71  82 S8        30.06R
OKC/TINKER AFB CLEAR     76  71  85 S7        30.05R
STILLWATER     CLEAR     77  71  82 S9        30.03F
GUTHRIE        CLEAR     77  71  82 S7        30.04S
$$

OKZ008-013-054>072-260900-
NORTHEAST OKLAHOMA

CITY           SKY/WX    TMP DP  RH WIND       PRES   REMARKS
TULSA          PTCLDY    83  73  72 S10       30.02S
TULSA/JONES    CLEAR     77  71  82 CALM      30.04R
PONCA CITY     PTCLDY    80  71  74 S5        30.02S
BARTLESVILLE   CLEAR     78  70  76 S7        30.03R
MUSKOGEE       CLEAR     74  71  91 S6        30.05S
$$

OKZ032-040>043-046>053-073>077-260900-
SOUTH CENTRAL/SOUTHEAST OKLAHOMA

CITY           SKY/WX    TMP DP  RH WIND       PRES   REMARKS
ARDMORE/DWNTWN CLOUDY    77  70  78 CALM      30.07S
MCALESTER      PTCLDY    79  72  79 S6        30.07F
$$





USA.gov is the U.S. government's official web portal to all federal, state and local government web resources and services.